Location: Beynat
(45.5399°N, 2.0660°E)
Time: 14:13:18
(UTC+00:00)

Daily predictions for brighter satellites

Satellite Brightness Start Highest point End
(mag) Time Altitude Azimuth Time Altitude Azimuth Time Altitude Azimuth
Cosmos 1980 Rocket 3.8 20:13:18 10° N 20:17:49 23° NE 20:22:17 10° E
Cosmos 1697 Rocket 3.5 20:12:44 10° NNW 20:18:00 39° NE 20:23:14 10° ESE
Cosmos 1975 Rocket 3.9 20:15:40 10° SSW 20:20:01 56° WNW 20:24:22 10° N
USA 276 3.6 20:19:06 10° WNW 20:21:56 35° N 20:24:46 10° ENE
Cosmos 1452 Rocket 3.6 20:16:53 10° S 20:22:02 57° ESE 20:27:11 10° NNE
TSX-5 4.4 20:20:02 10° SSW 20:24:33 81° ESE 20:30:29 10° NNE
Lacrosse 5 3.0 20:20:35 10° WNW 20:25:17 37° SW 20:29:56 10° SSE
Cosmos 1709 Rocket 4.5 20:19:22 10° NNW 20:25:32 66° W 20:31:46 10° S
Cosmos 1110 Rocket 4.5 20:21:59 10° S 20:26:52 40° ESE 20:31:48 10° NE
ERS-1 Rocket 4.2 20:22:56 10° ESE 20:27:12 28° ENE 20:31:27 10° N
SL-24 R/B 4.4 20:26:29 10° SSE 20:30:51 73° ENE 20:35:55 10° N
COSMOS 2406 4.1 20:26:09 10° SSE 20:31:01 29° ESE 20:35:53 10° NE
Cosmos 1544 Rocket 3.8 20:32:22 10° NNW 20:36:42 70° W 20:41:01 10° S
PSLV R/B 4.2 20:33:14 10° N 20:37:23 73° WNW 20:41:33 10° SSW
Cosmos 2074 Rocket 4.1 20:32:42 10° N 20:38:56 62° ENE 20:45:06 10° SSE
Cosmos 1833 Rocket 2.7 20:36:13 10° S 20:41:41 59° ESE 20:47:13 10° NNE
Cosmos 1703 3.4 20:40:06 10° S 20:43:51 54° E 20:47:37 10° NNE
Nadezhda 1 Rocket 4.3 20:43:26 10° SSE 20:49:10 46° E 20:54:55 10° NNE
RESURS DK-1 2.6 20:51:20 10° NNW 20:55:27 69° WSW 20:59:05 13° SSE
Cosmos 1867 4.4 20:55:41 10° NNW 21:00:53 42° NE 21:05:33 12° ESE
Cosmos 2084 Rocket 3.5 21:00:04 10° NNW 21:03:56 60° NE 21:06:56 17° SE
X-37B 0.6 21:02:01 10° W 21:04:44 48° SSW 21:06:14 22° SE
Helios 1A Rocket 3.1 21:03:00 16° SSE 21:06:08 59° ENE 21:10:11 10° N
SL-8 R/B 3.9 21:02:04 10° WNW 21:06:47 57° SSW 21:10:19 17° SE
Cosmos 1741 Rocket 4.4 21:05:07 10° NNW 21:10:23 63° WSW 21:15:10 12° S
IRAS Rocket 4.5 21:05:51 10° NNE 21:11:28 76° WNW 21:16:58 10° SSW
Cosmos 2154 Rocket 4.0 21:05:43 10° N 21:11:58 77° E 21:17:21 14° SSE
Cosmos 1455 4.3 21:11:14 10° NW 21:14:21 24° W 21:17:29 10° SW
Ariane Rocket 4.0 21:10:15 10° S 21:15:04 42° W 21:19:55 10° NNW
Cosmos 1328 3.9 21:13:36 16° S 21:16:37 56° E 21:20:32 10° NNE
Cosmos 2082 Rocket 2.5 21:12:16 10° S 21:17:43 48° ESE 21:23:10 10° NE
Cosmos 2360 4.3 21:13:43 10° NNW 21:19:28 78° WSW 21:23:53 18° SSE
SPOT 3 Rocket 4.0 21:15:15 11° S 21:20:13 60° WSW 21:25:25 10° NNW
CZ-2C R/B 3.7 21:17:25 10° NNE 21:21:55 58° E 21:25:23 16° S
Cosmos 1892 Rocket 3.9 21:21:09 20° SSE 21:23:53 46° E 21:28:04 10° NNE
Cosmos 2228 3.2 21:19:42 10° NNW 21:23:55 66° W 21:27:18 15° S
Resurs 01 Rocket 4.0 21:27:22 10° SW 21:30:30 19° W 21:33:40 10° NW
Cosmos 2058 Rocket 3.7 21:27:47 10° N 21:32:02 43° ENE 21:34:19 24° SE
Meteor 1-21 Rocket 4.5 21:31:12 10° SSW 21:36:46 71° WNW 21:42:30 10° N
CZ-4B R/B 4.2 21:38:44 10° NW 21:40:00 12° WNW 21:41:15 10° W
SPOT 5 3.1 21:37:57 17° S 21:41:06 53° W 21:45:20 10° NNW
Terra 1.9 21:39:42 22° S 21:42:50 79° WSW 21:47:37 10° NNW
Spot 2 Rocket 4.1 21:41:30 16° S 21:45:26 53° W 21:50:27 10° NNW
Cosmos 1892 3.0 21:44:17 32° SSE 21:45:38 48° E 21:49:18 10° NNE
SJ 16-02 3.6 21:44:07 10° NNE 21:46:47 15° NE 21:49:24 10° E
FALCON 9 DEB 4.0 21:45:07 10° NW 21:48:16 43° NNE 21:50:07 21° E
Cosmos 2366 rocket 4.4 21:42:56 10° N 21:49:05 50° ENE 21:52:47 24° SE
Cosmos 2218 Rocket 4.3 21:47:48 10° N 21:54:06 55° ENE 21:57:46 25° SE
ASTEX 1 3.6 21:51:22 10° NNE 21:56:19 58° E 21:58:45 29° SSE
Cosmos 1606 Rocket 4.4 21:53:14 10° NNW 21:57:22 45° W 22:00:10 19° SSW
USA 276 3.1 21:55:10 10° WNW 21:58:05 42° NNE 21:59:52 19° ENE
ARIANE 5 R/B 2.8 21:58:45 27° S 22:01:05 69° WSW 22:05:29 10° NNW
Cosmos 1697 Rocket 3.8 21:56:51 10° NW 22:01:54 35° WSW 22:05:32 17° SSW
Cosmos 1980 Rocket 2.3 21:56:41 10° NNW 22:02:22 69° WSW 22:05:29 27° S
GP-B 3.1 21:58:46 10° N 22:03:12 66° E 22:05:00 34° SSE
SL-16 R/B 3.2 21:58:24 10° NNW 22:03:41 38° NE 22:07:09 19° ESE
ERS-1 Rocket 4.0 22:02:19 17° SSW 22:05:49 40° W 22:10:34 10° NNW
Cosmos 2369 4.1 22:02:45 10° NNW 22:08:22 55° WSW 22:11:30 26° S
ATLAS 5 CENTAUR R/B 1.1 22:08:26 34° SSW 22:09:54 67° SE 22:13:58 10° NE
Cosmos 2341 Rocket 4.0 22:05:31 10° N 22:11:51 81° W 22:15:35 26° S
COSMOS 2406 4.2 22:09:30 10° SW 22:15:03 48° WNW 22:20:38 10° NNE
Cosmos 864 Rocket 4.5 22:10:43 10° N 22:16:56 77° E 22:20:11 30° SSE
In-Cosmos 22 Rocket 4.1 22:14:45 27° S 22:17:50 81° E 22:23:16 10° NNE
Cosmos 1408 3.3 22:19:29 27° SW 22:20:56 45° WNW 22:24:17 10° N
Okean 1-7 Rocket 3.5 22:19:49 38° S 22:21:27 75° E 22:25:58 10° NNE
Cosmos 968 Rocket 4.2 22:19:06 10° NNW 22:24:01 44° WSW 22:26:32 26° SSW
Cosmos 1869 3.2 22:21:57 10° N 22:25:52 79° E 22:26:47 51° SSE
Cosmos 1758 Rocket 4.3 22:25:31 33° ESE 22:26:17 35° E 22:30:18 10° NNE
Cosmos 1825 2.0 22:28:50 52° S 22:29:42 88° W 22:33:28 10° N
Meteor 1-27 4.2 22:26:56 10° NNW 22:32:31 82° W 22:35:01 35° S
Spot 4 4.1 22:35:11 36° SE 22:36:51 56° ENE 22:41:33 10° N
Cosmos 1812 Rocket 3.8 22:33:34 10° N 22:38:00 59° E 22:39:08 44° SE
Cosmos 2181 Rocket 4.1 22:34:40 25° SSW 22:38:25 75° W 22:44:42 10° N
Cosmos 2322 Rocket 2.8 22:33:02 10° NNW 22:38:33 49° ENE 22:41:25 27° ESE
USA 267 3.2 22:32:04 10° NE 22:38:36 66° SE 22:45:05 10° SW
BREEZE-M DEB (TANK) 4.0 22:39:03 10° WNW 22:42:08 63° NNE 22:53:13 10° E
Cosmos-2242 3.4 22:38:07 10° N 22:42:16 51° ENE 22:43:11 42° ESE
Cosmos 1821 Rocket 4.1 22:37:32 10° N 22:43:44 63° ENE 22:46:22 34° SSE
Cosmos 1867 4.4 22:39:26 10° NW 22:44:26 37° WSW 22:46:12 29° SSW
Cosmos 1602 Rocket 3.4 22:48:53 52° S 22:49:54 85° E 22:54:16 10° N
Cosmos 2278 4.2 22:45:09 10° NW 22:50:38 49° WSW 22:52:47 33° SSW
Cosmos 2333 Rocket 3.7 22:51:23 10° N 22:56:26 30° NE 23:00:27 14° ESE
ALOS 2 2.8 23:00:42 46° SE 23:01:43 60° ENE 23:06:04 10° N
Cosmos 2082 Rocket 3.9 22:56:58 10° WSW 23:01:59 31° NW 23:07:02 10° N
Nadezhda 3 Rocket 3.9 23:02:12 38° SSE 23:04:37 72° E 23:10:46 10° NNE
Gbstr 26 Del rocket 3.2 23:05:11 51° SE 23:05:11 51° SE 23:09:42 10° ENE
Cosmos 1340 Rocket 3.8 23:05:54 33° E 23:05:54 33° E 23:09:27 10° NNE
Cosmos 1606 2.6 23:07:10 10° N 23:11:02 77° E 23:11:18 72° SE
USA 234 3.5 23:07:03 15° ESE 23:12:38 71° NNE 23:19:10 10° NW
Cosmos 1633 3.0 23:12:29 47° W 23:12:44 49° WNW 23:16:07 10° N
Cosmos 2360 Rocket 2.5 23:08:09 10° NNW 23:13:47 59° ENE 23:16:14 33° SE
BREEZE-M DEB (TANK) 3.9 23:03:02 10° WSW 23:14:30 75° NNW 23:17:58 10° ENE
Cosmos 1953 Rocket 4.1 23:15:54 42° ESE 23:16:24 44° E 23:20:37 10° NNE
Cosmos 1825 Rocket 3.4 23:24:44 65° S 23:25:21 86° ESE 23:29:44 10° N
SJ 16-02 1.3 23:21:24 10° NNW 23:25:49 67° WSW 23:26:24 59° SSW
H-2A R/B 3.4 23:21:58 10° NNE 23:26:12 82° WNW 23:26:52 62° SSW
Cosmos 1833 4.4 23:27:13 44° SSE 23:28:30 54° ESE 23:33:57 10° NE
Cosmos 2058 2.7 23:28:04 70° S 23:28:32 87° E 23:32:44 10° N
PSLV R/B 4.5 23:24:16 10° NNE 23:28:41 38° E 23:29:18 36° ESE
Cosmos 2237 4.2 23:27:19 10° NNW 23:33:00 69° WSW 23:34:40 46° S
USA 276 4.5 23:30:56 10° WNW 23:31:40 16° WNW 23:31:40 16° WNW
Cosmos 2221 2.9 23:35:14 10° N 23:39:30 52° ENE 23:40:15 45° ESE
Meteor 2-2 Rocket 4.3 23:36:15 10° NNW 23:42:19 82° W 23:44:23 44° S
COSMOS 2428 4.1 23:37:55 10° NNW 23:43:06 34° NE 23:47:19 14° ESE
ISS -1.6 23:47:45 19° ENE 23:47:45 19° ENE 23:48:53 10° ENE
ADEOS Rocket 3.6 23:42:56 36° S 23:46:12 66° W 23:53:56 10° NNW
Cosmos 1842 Rocket 4.2 23:43:04 10° N 23:47:25 47° ENE 23:48:21 41° ESE
ERS-2 2.0 23:44:04 10° NNE 23:47:29 78° ENE 23:47:29 78° ENE
SL-16 R/B 2.9 23:42:35 10° NW 23:47:46 37° WSW 23:49:00 33° SW
COSMOS 2487 3.9 23:49:36 25° ENE 23:49:36 25° ENE 23:51:19 10° NE
SL-4 R/B 2.0 23:49:36 58° WNW 23:49:59 64° NNW 23:53:40 10° ENE
Cosmos 2219 Rocket 2.8 23:44:39 10° NNW 23:50:12 51° ENE 23:53:12 26° ESE
SL-27 R/B 3.4 23:53:43 36° ENE 23:53:43 36° ENE 23:56:04 10° NNE
ATLAS 5 CENTAUR R/B 4.0 23:52:05 10° WNW 23:54:55 19° NNW 23:58:03 10° NNE
